Location: Bothwell
(42.3833°S, 147.0000°E)
Time: 05:49:19
(UTC+10:00)

First-Move - Visible Passes

Search period start: 25 September 2022 00:00
Search period end: 05 October 2022 01:00
Orbit: 569 x 659 km, 97.6° (Epoch: 24 September)

Date Brightness Start Highest point End Pass type
(mag) Time Alt. Az. Time Alt. Az. Time Alt. Az.
25 Sep ? 02:05:04 15° SE 02:05:04 15° SE 02:06:43 10° SSE visible
25 Sep ? 03:42:07 23° SSW 03:42:07 23° SSW 03:43:57 10° SSW visible
26 Sep ? 02:20:30 20° SE 02:20:30 20° SE 02:22:47 10° SSE visible
26 Sep ? 03:57:31 21° SW 03:57:31 21° SW 03:59:17 10° SSW visible
27 Sep ? 02:35:54 26° SE 02:35:54 26° SE 02:38:38 10° S visible
27 Sep ? 04:12:56 18° SW 04:12:56 18° SW 04:14:27 10° SW visible
28 Sep ? 02:51:19 34° SSE 02:51:19 34° SSE 02:54:21 10° S visible
28 Sep ? 04:28:20 14° WSW 04:28:20 14° WSW 04:29:25 10° SW visible
29 Sep ? 03:06:42 43° SSE 03:06:42 43° SSE 03:09:57 10° S visible
29 Sep ? 04:43:44 10° WSW 04:43:44 10° WSW 04:43:55 10° WSW visible
30 Sep ? 01:45:04 11° ESE 01:45:32 11° ESE 01:46:51 10° SE visible
30 Sep ? 03:22:06 48° SSW 03:22:06 48° SSW 03:25:26 10° SSW visible
01 Oct ? 02:00:27 16° ESE 02:00:46 16° ESE 02:03:29 10° SSE visible
01 Oct ? 03:37:29 44° SW 03:37:29 44° SW 03:40:51 10° SSW visible
02 Oct ? 03:15:49 21° ESE 03:16:02 22° ESE 03:19:32 10° SSE visible
02 Oct ? 04:52:51 35° WSW 04:52:51 35° WSW 04:56:08 10° SSW visible
03 Oct ? 03:31:11 30° ESE 03:31:20 30° ESE 03:35:21 10° S visible
03 Oct ? 05:08:13 26° WSW 05:08:13 26° WSW 05:11:17 10° SW visible
04 Oct ? 03:46:33 42° ESE 03:46:40 42° ESE 03:51:01 10° S visible
04 Oct ? 05:23:35 19° W 05:23:35 19° W 05:26:14 10° SW visible
